{"data":{"norad_id":62875,"intl_designator":"2025-022X","name":"STARLINK-32834","alt_names":[],"object_type":"PAYLOAD","status":"ACTIVE","operator":null,"country":"US","launch_date":"2025-02-01","launch_site_code":"AFWTR","launch_vehicle":null,"mission":null,"orbit_class":"UNKNOWN","rcs_meters":null,"size_class":null,"mass_kg":null,"dimensions":null,"purposes":["comms"],"wikipedia_slug":null,"has_3d_model":false,"image_url":null,"decayed_at":null,"tle_current":{"epoch":"2026-05-25T03:00:48.550752Z","epoch_age_seconds":74324,"freshness":"FRESH","line1":"1 62875U 25022X   26145.12556193  .00033277  00000+0  11311-2 0  9999","line2":"2 62875  53.1556 134.5173 0001241  97.7853 262.3288 15.30187771 73603","mean_motion":15.30187771,"eccentricity":0.0001241,"inclination_deg":53.1556,"raan_deg":134.5173,"arg_perigee_deg":97.7853,"mean_anomaly_deg":262.3288,"bstar":0.0011311,"rev_number":7360,"period_min":94.106097780336,"perigee_km":474.40107772903,"apogee_km":476.10208877539,"semimajor_km":6853.3885832522,"source":"CELESTRAK","updated_at":"2026-05-25T13:38:19.787851Z"}}}